Terminal Aerodrome Forecast
Issued by NWS

Home | Current Version | Previous Version | Text Only | Print | Product List | Glossary On
Versions: 1 2 3 4 5 6 7 8 9 10 11 12 13 14 15 16 17 18 19 20 21 22 23 24 25 26 27 28 29 30 31 32 33 34 35 36 37 38 39 40 41 42 43 44
000
FTUS44 KHGX 180929 AAA
TAFLBX
TAF AMD
KLBX 180929Z 1809/1906 00000KT P6SM VCSH FEW020 OVC250
      TEMPO 1810/1814 SHRA BKN018 OVC100
     FM181400 09006KT P6SM VCTS SCT025CB BKN040 BKN250
      TEMPO 1814/1818 TSRA BKN025CB=

USA.gov is the U.S. government's official web portal to all federal, state and local government web resources and services.